User: anonymous   Login
Location: Castiglione Fibocchi
(43.5333°N, 11.7667°E)
Time: 15:30:20
(UTC+00:00)
Language:

USA 215 - Orbit

View from above orbital plane
View from above orbital plane
View from above satellite
View from above satellite

Ground track
Ground track

The orbit data is extracted from the following two-line orbital elements,

1 37162U 10046A   20283.76956847 0.00000000  00000-0  00000-0 0    00
2 37162 122.9983 332.2620 0002744  41.4068 318.5932 13.41429962    05
Epoch (UTC): 09 October 2020 18:28:10
Eccentricity: 0.0002744
inclination: 122.9983°
perigee height: 1102 km
apogee height: 1106 km
right ascension of ascending node: 332.2620°
argument of perigee: 41.4068°
revolutions per day: 13.41429962
mean anomaly at epoch: 318.5932°
orbit number at epoch: 0

The dashed part of the orbit path shows where the satellite is in the earth's shadow,  

DLR